Regional Weather Roundup
Issued by NWS

Home | Current Version | Previous Version | Text Only | Print | Product List | Glossary Off
Versions: 1 2 3 4 5 6 7 8 9 10 11 12 13 14 15 16 17 18 19 20 21 22 23 24 25 26 27 28 29 30 31 32 33 34 35 36 37 38 39 40 41 42 43 44 45 46 47 48 49 50

000
ASUS43 KDMX 080908
RWRIA

WEATHER ROUNDUP FOR IOWA
NATIONAL WEATHER SERVICE DES MOINES IA
300 AM CST MON FEB 08 2016

NOTE: "FAIR" INDICATES FEW OR NO CLOUDS BELOW 12,000 FEET WITH NO
SIGNIFICANT WEATHER AND/OR OBSTRUCTIONS TO VISIBILITY.

* - THESE STATIONS ARE NOT NWS STATIONS...THUS NOT UNDER NWS
QUALITY CONTROL.  THEY ALSO DO NOT REPORT WEATHER SUCH
AS PRECIPITATION OR FOG.

IAZ001>003-012>014-020>022-031>034-043>046-081000-
   NORTHWEST IOWA

CITY           SKY/WX    TMP DP  RH WIND       PRES   REMARKS
CARROLL *      FLURRIES  19  14  79 NW26G36   29.92R WCI   1
CHEROKEE *     LGT SNOW  19  18  93 N17G29    29.95R WCI   4
DENISON *      LGT RAIN  23  18  80 N26G38    29.93R WCI   6
LE MARS *      CLOUDY    25  21  86 N22G31    29.99R WCI  10
ORANGE CITY *    N/A     21  19  93 N21G28    29.95R WCI   6
SHELDON *      LGT SNOW  19  18  93 NW26      29.93R VSB 3/4 WCI   1
SIOUX CITY     FLURRIES  28  19  69 N30G39    29.99R WCI  12
SPENCER        LGT SNOW  17  10  74 NW36G47   29.91R WCI  -4
STORM LAKE *   FLURRIES  19  14  79 NW30G43   29.90S WCI   0
$$

IAZ055>058-069>071-079>083-090>094-081000-
   SOUTHWEST IOWA

CITY           SKY/WX    TMP DP  RH WIND       PRES   REMARKS
ATLANTIC *     FLURRIES  23  19  86 N21G29    29.96R WCI   8
AUDUBON *      FLURRIES  21  16  79 NW17G25   29.93R WCI   7
CLARINDA *     MIX PCPN  30  23  74 NW13G26   29.98F WCI  20
COUNCIL BLFS * LGT RAIN  28  23  80 NW15G24   29.97R WCI  17
CRESTON *      CLOUDY    25  18  74 NW24G36   29.91S WCI   9
HARLAN  *      LGT SNOW  23  21  93 N26       29.99R WCI   6
LAMONI         CLOUDY    25  16  68 NW26G36   29.89S WCI   9
RED OAK *      MIX PCPN  28  23  80 N17G24    29.97S WCI  16
SHENANDOAH *   CLOUDY    32  25  74 NW9G17    29.98F WCI  24
$$

IAZ047>049-059>061-072>074-084-081000-
   CENTRAL IOWA

CITY           SKY/WX    TMP DP  RH WIND       PRES   REMARKS
AMES           LGT SNOW  20  15  81 NW24G35   29.85S WCI   3
ANKENY *       CLOUDY    23  14  68 NW25G37   29.86S WCI   7
BOONE *        LGT SNOW  19  16  86 NW21G26   29.84S WCI   3
CHARITON *     FLURRIES  25  16  68 NW18G31   29.86S WCI  11
DES MOINES     FLURRIES  23  13  65 NW22G39   29.87S WCI   8
GRINNELL*      FLURRIES  21  18  86 NW26G35   29.81F WCI   4
KNOXVILLE *    FLURRIES  25  18  74 NW22G33   29.83S WCI  10
MARSHALLTOWN   LGT SNOW  19  14  81 NW35G45   29.81S WCI  -1
NEWTON *       LGT SNOW  21  19  93 NW22      29.83S WCI   5
PELLA *        LGT SNOW  23  19  86 NW18      29.85S WCI   9
$$

IAZ004>006-015-016-023>025-035-036-081000-
   NORTH CENTRAL IOWA

CITY           SKY/WX    TMP DP  RH WIND       PRES   REMARKS
ALGONA *       LGT SNOW  16  12  86 N36G46    29.82S VSB 3/4 WCI  -6
CLARION *      SNOW      16  12  86 NW37G47   29.81F VSB 1/2 WCI  -6
ESTHERVILLE    BLWGSNOW  13  10  88 NW38G49   29.87S VSB 1/4 WCI -10
FORT DODGE *   CLOUDY    18   9  68 NW24G41   29.86F VSB 1/2 WCI   0
MASON CITY     LGT SNOW  15  11  83 NW26G33   29.79R FOG     WCI  -4
FOREST CITY *  LGT SNOW  14  12  92 NW22G32   29.78S WCI  -4
WEBSTER CITY * SNOW      18  14  86 NW39G49   29.82S VSB 1/4 WCI  -4
IOWA FALLS *   SNOW      18  14  86 NW36G44   29.81F VSB 1/2 WCI  -3
$$

IAZ007>011-017>019-026>030-037>042-050>054-066-081000-
   NORTHEAST IOWA

CITY           SKY/WX    TMP DP  RH WIND       PRES   REMARKS
CEDAR RAPIDS   LGT SNOW  20  16  84 NW26G41   29.74S FOG     WCI   2
CHARLES CITY * FLURRIES  16  10  79 NW21G28   29.75S WCI  -2
DECORAH *      CLOUDY    18  12  79 NW12G20   29.69S WCI   5
DUBUQUE        CLOUDY    23  18  81 NW18      29.67S WCI   9
MONTICELLO *   LGT SNOW  23  19  86 NW16      29.71F WCI  10
OELWEIN *      LGT SNOW  16  12  86 NW24G31   29.73F WCI  -3
WATERLOO       LGT SNOW  18  12  77 NW21      29.76S WCI   1
$$

IAZ064-065-067-068-078-081000-
   EAST CENTRAL IOWA

CITY           SKY/WX    TMP DP  RH WIND       PRES   REMARKS
DAVENPORT      CLOUDY    30  23  75 NW16      29.70S WCI  19
IOWA CITY      FLURRIES  24  15  68 NW31G43   29.79R WCI   7
MT. PLEASANT * MIX PCPN  30  25  80 NW14G25   29.78R WCI  20
MUSCATINE *    CLOUDY    28  18  64 NW23G30   29.77R WCI  14
QUAD CITIES    CLOUDY    32  23  69 NW20G26   29.70S WCI  20
$$

IAZ062-063-075>077-085>089-095>099-081000-
   SOUTHEAST IOWA

CITY           SKY/WX    TMP DP  RH WIND       PRES   REMARKS
BURLINGTON     CLOUDY    30  27  88 NW15G24   29.75R WCI  19
FAIRFIELD *    CLOUDY    27  19  74 NW23G30   29.79S WCI  12
FORT MADISON * CLOUDY    30  27  86 NW22G28   29.77R WCI  17
KEOKUK *       RAIN      32  28  86 NW20G33   29.77S WCI  20
OSKALOOSA *    LGT SNOW  25  21  86 NW22G29   29.82S WCI  10
CENTERVILLE *    N/A    N/A N/A N/A MISG        N/A
OTTUMWA        LGT SNOW  24  22  91 NW24G30   29.82R FOG     WCI   8
WASHINGTON *   CLOUDY    27  18  69 NW23G39   29.80R WCI  12
$$

ABBREVIATIONS USED IN REMARKS
   TC - TEMPERATURES IN CELSIUS
  WCI - WIND CHILL INDEX
   HX - HEAT INDEX
  VSB - VISIBILITY
$$




USA.gov is the U.S. government's official web portal to all federal, state and local government web resources and services.